DW1114 Weather Reports


time (UTC)temp
C
wind
direction
speed
KPH
gust
KPH
rain 1hr
cm
rain 24hr
cm
rain mn
cm
humidity
%
barometer
mb
20260903011402 30 210 0.0 9.7 0.00 0.00 0.00 1015.6
20260903010924 30 151 0.0 9.7 0.00 0.00 0.00 1015.6
20260903010402 30 174 0.0 3.2 0.00 0.00 0.00 1015.6
20260903005903 30 195 0.0 4.8 0.00 0.00 0.00 1014.9
20260903005402 30 208 0.0 4.8 0.00 0.00 0.00 1015.3
20260903004924 30 195 0.0 8.0 0.00 0.00 0.00 1015.3
20260903004403 30 198 0.0 8.0 0.00 0.00 0.00 1015.6
20260903003903 30 224 0.0 9.7 0.00 0.00 0.00 1016.0
20260903003403 30 237 0.0 9.7 0.00 0.00 0.00 1015.6
20260903002903 30 254 0.0 9.7 0.00 0.00 0.00 1015.3
20260903002424 30 275 1.6 9.7 0.00 0.00 0.00 1015.3
20260903001903 30 195 0.0 6.4 0.00 0.00 0.00 1014.9
20260903001403 30 260 1.6 9.7 0.00 0.00 0.00 1014.9
20260903000902 31 353 0.0 9.7 0.00 0.00 0.00 1016.0
20260903000424 31 205 0.0 9.7 0.00 0.00 0.00 1016.3
20260902235924 31 186 0.0 9.7 0.00 0.00 0.00 1016.0
20260902235403 31 194 0.0 8.0 0.00 0.00 0.00 1015.3
20260902234903 31 228 1.6 11.3 0.00 0.00 0.00 1015.3
20260902234403 31 224 3.2 11.3 0.00 0.00 0.00 1015.6
20260902233902 32 199 0.0 9.7 0.00 0.00 0.00 1015.3
20260902233403 32 218 1.6 8.0 0.00 0.00 0.00 1015.6
20260902232903 32 225 1.6 8.0 0.00 0.00 0.00 1015.6
20260902232403 32 249 0.0 12.9 0.00 0.00 0.00 1015.6
20260902231903 32 267 4.8 12.9 0.00 0.00 0.00 1015.6
20260902231402 32 232 4.8 9.7 0.00 0.00 0.00 1015.6
20260902230903 32 227 3.2 9.7 0.00 0.00 0.00 1015.6
20260902230403 32 233 3.2 14.5 0.00 0.00 0.00 1016.0
20260902225903 33 252 4.8 14.5 0.00 0.00 0.00 1015.3
20260902225402 34 193 1.6 8.0 0.00 0.00 0.00 1016.0
20260902224924 34 234 4.8 12.9 0.00 0.00 0.00 1016.0
20260902224403 35 248 4.8 12.9 0.00 0.00 0.00 1016.0
20260902223903 35 278 4.8 12.9 0.00 0.00 0.00 1015.6
20260902223424 35 206 3.2 14.5 0.00 0.00 0.00 1015.3
20260902222903 35 275 3.2 14.5 0.00 0.00 0.00 1015.3
20260902222403 35 257 3.2 14.5 0.00 0.00 0.00 1015.3
20260902221903 35 189 3.2 19.3 0.00 0.00 0.00 1015.6
20260902221424 35 271 6.4 19.3 0.00 0.00 0.00 1015.3
20260902220903 35 191 3.2 14.5 0.00 0.00 0.00 1014.9
20260902220424 35 254 4.8 14.5 0.00 0.00 0.00 1015.3
20260902215903 35 242 4.8 14.5 0.00 0.00 0.00 1014.9
20260902215424 35 227 4.8 11.3 0.00 0.00 0.00 1015.3
20260902214904 35 197 3.2 14.5 0.00 0.00 0.00 1016.0
20260902214404 35 192 4.8 19.3 0.00 0.00 0.00 1015.6
20260902213904 35 224 4.8 20.9 0.00 0.00 0.00 1015.3
20260902213402 35 271 6.4 20.9 0.00 0.00 0.00 1015.6
20260902212403 35 249 4.8 17.7 0.00 0.00 0.00 1015.6
20260902211903 35 274 4.8 20.9 0.00 0.00 0.00 1015.6
20260902211425 35 277 9.7 20.9 0.00 0.00 0.00 1015.3
20260902210903 35 255 4.8 16.1 0.00 0.00 0.00 1014.9
20260902210403 35 293 3.2 17.7 0.00 0.00 0.00 1014.9
20260902205903 35 281 3.2 19.3 0.00 0.00 0.00 1015.3
20260902205403 35 284 11.3 19.3 0.00 0.00 0.00 1015.6
20260902204924 35 271 6.4 17.7 0.00 0.00 0.00 1015.3
20260902204403 34 194 4.8 14.5 0.00 0.00 0.00 1015.3
20260902203903 34 265 6.4 12.9 0.00 0.00 0.00 1016.0
20260902203403 34 265 3.2 11.3 0.00 0.00 0.00 1016.0
20260902202903 34 260 6.4 19.3 0.00 0.00 0.00 1015.6
20260902202403 34 258 6.4 19.3 0.00 0.00 0.00 1016.0
20260902201903 33 258 6.4 16.1 0.00 0.00 0.00 1016.0
20260902201403 34 272 6.4 19.3 0.00 0.00 0.00 1015.6
20260902200903 34 281 8.0 19.3 0.00 0.00 0.00 1016.0
20260902200403 33 279 9.7 19.3 0.00 0.00 0.00 1015.6
20260902195923 33 281 3.2 17.7 0.00 0.00 0.00 1015.6
20260902195403 34 297 6.4 14.5 0.00 0.00 0.00 1016.0
20260902194902 33 199 3.2 16.1 0.00 0.00 0.00 1015.6
20260902194403 34 218 3.2 16.1 0.00 0.00 0.00 1016.3
20260902193903 34 260 6.4 17.7 0.00 0.00 0.00 1016.0
20260902193403 33 275 6.4 17.7 0.00 0.00 0.00 1016.0
20260902192903 34 287 6.4 19.3 0.00 0.00 0.00 1016.3
20260902192402 34 285 6.4 19.3 0.00 0.00 0.00 1016.0
20260902191903 33 281 6.4 22.5 0.00 0.00 0.00 1016.0
20260902191402 33 245 6.4 22.5 0.00 0.00 0.00 1016.3
20260902190903 33 275 6.4 16.1 0.00 0.00 0.00 1015.6
20260902190403 33 198 6.4 11.3 0.00 0.00 0.00 1016.0
20260902185903 34 212 3.2 22.5 0.00 0.00 0.00 1016.0
20260902185424 33 271 6.4 22.5 0.00 0.00 0.00 1017.0
20260902184902 33 258 4.8 14.5 0.00 0.00 0.00 1016.6
20260902184403 33 288 3.2 19.3 0.00 0.00 0.00 1016.6
20260902183903 33 244 4.8 19.3 0.00 0.00 0.00 1016.3
20260902183445 33 225 3.2 14.5 0.00 0.00 0.00 1016.6
20260902182903 33 281 6.4 14.5 0.00 0.00 0.00 1016.6
20260902182424 33 257 4.8 16.1 0.00 0.00 0.00 1017.0
20260902181903 33 278 6.4 16.1 0.00 0.00 0.00 1017.0
20260902181403 33 263 8.0 16.1 0.00 0.00 0.00 1016.6
20260902180903 33 286 4.8 11.3 0.00 0.00 0.00 1016.6
20260902180403 33 233 4.8 16.1 0.00 0.00 0.00 1016.3
20260902175903 32 280 8.0 16.1 0.00 0.00 0.00 1016.6
20260902175425 33 257 4.8 11.3 0.00 0.00 0.00 1016.6
20260902174903 33 194 3.2 11.3 0.00 0.00 0.00 1016.3
20260902174403 32 267 4.8 11.3 0.00 0.00 0.00 1017.0
20260902173903 32 267 4.8 14.5 0.00 0.00 0.00 1016.6
20260902173403 32 293 8.0 14.5 0.00 0.00 0.00 1017.0
20260902172924 32 272 6.4 16.1 0.00 0.00 0.00 1017.3
20260902172403 32 290 8.0 16.1 0.00 0.00 0.00 1017.3
20260902171902 32 256 3.2 20.9 0.00 0.00 0.00 1017.3
20260902171424 32 295 4.8 20.9 0.00 0.00 0.00 1017.0
20260902170902 32 295 11.3 19.3 0.00 0.00 0.00 1017.3
20260902170403 32 271 8.0 19.3 0.00 0.00 0.00 1017.6
20260902165903 32 188 3.2 14.5 0.00 0.00 0.00 1017.6
20260902165402 32 199 1.6 17.7 0.00 0.00 0.00 1017.0
20260902164903 32 278 4.8 17.7 0.00 0.00 0.00 1017.3
20260902164402 32 287 6.4 12.9 0.00 0.00 0.00 1018.0
20260902163903 32 262 3.2 14.5 0.00 0.00 0.00 1017.6
20260902163403 32 259 4.8 14.5 0.00 0.00 0.00 1018.0
20260902162903 32 255 4.8 14.5 0.00 0.00 0.00 1017.6
20260902162445 32 262 3.2 14.5 0.00 0.00 0.00 1017.6
20260902161924 31 285 6.4 16.1 0.00 0.00 0.00 1018.0
20260902161403 32 291 6.4 16.1 0.00 0.00 0.00 1017.6
20260902160903 31 291 9.7 14.5 0.00 0.00 0.00 1017.6
20260902160403 31 279 8.0 16.1 0.00 0.00 0.00 1017.6
20260902155903 31 271 4.8 16.1 0.00 0.00 0.00 1017.6
20260902155402 31 233 4.8 19.3 0.00 0.00 0.00 1017.3
20260902154903 31 261 6.4 19.3 0.00 0.00 0.00 1017.3
20260902154402 31 303 6.4 11.3 0.00 0.00 0.00 1018.0
20260902153903 31 263 4.8 11.3 0.00 0.00 0.00 1017.6
20260902153403 31 183 4.8 9.7 0.00 0.00 0.00 1018.0
20260902152903 31 175 0.0 12.9 0.00 0.00 0.00 1018.0
20260902152403 30 219 1.6 12.9 0.00 0.00 0.00 1018.0
20260902151904 30 233 1.6 11.3 0.00 0.00 0.00 1018.0
20260902151403 30 279 3.2 11.3 0.00 0.00 0.00 1017.6
20260902150903 30 202 3.2 8.0 0.00 0.00 0.00 1018.0
20260902150403 30 201 3.2 14.5 0.00 0.00 0.00 1017.6
20260902145924 30 276 4.8 14.5 0.00 0.00 0.00 1017.6
20260902145403 30 202 1.6 11.3 0.00 0.00 0.00 1018.0
20260902144903 30 215 3.2 11.3 0.00 0.00 0.00 1018.0
20260902144403 30 282 4.8 11.3 0.00 0.00 0.00 1018.0
20260902143902 29 280 4.8 9.7 0.00 0.00 0.00 1017.6
20260902143403 29 281 4.8 12.9 0.00 0.00 0.00 1018.0
20260902142904 29 289 1.6 12.9 0.00 0.00 0.00 1017.6
20260902142403 28 288 4.8 12.9 0.00 0.00 0.00 1017.6
20260902141924 28 292 6.4 12.9 0.00 0.00 0.00 1018.0
20260902141402 28 272 8.0 14.5 0.00 0.00 0.00 1018.3
20260902140903 28 290 9.7 14.5 0.00 0.00 0.00 1018.3
20260902140402 28 279 6.4 14.5 0.00 0.00 0.00 1018.0
20260902135903 28 295 8.0 16.1 0.00 0.00 0.00 1018.0
20260902135404 27 290 8.0 16.1 0.00 0.00 0.00 1017.3
20260902134903 28 249 4.8 14.5 0.00 0.00 0.00 1017.6
20260902134424 27 258 3.2 16.1 0.00 0.00 0.00 1018.0
20260902133902 28 291 6.4 16.1 0.00 0.00 0.00 1018.0
20260902133403 27 285 3.2 14.5 0.00 0.00 0.00 1017.6
20260902132904 27 281 4.8 14.5 0.00 0.00 0.00 1018.0
20260902132403 27 134 0.0 17.7 0.00 0.00 0.00 1018.0
20260902131925 27 286 1.6 17.7 0.00 0.00 0.00 1018.0
20260902131402 27 263 4.8 14.5 0.00 0.00 0.00 1017.6
20260902130924 27 272 4.8 14.5 0.00 0.00 0.00 1017.6
20260902130403 27 223 3.2 11.3 0.00 0.00 0.00 1017.6
20260902125903 27 231 3.2 11.3 0.00 0.00 0.00 1018.0
20260902125403 27 234 0.0 11.3 0.00 0.00 0.00 1017.6
20260902124903 26 262 4.8 11.3 0.00 0.00 0.00 1018.0
20260902124403 26 276 1.6 8.0 0.00 0.00 0.00 1017.6
20260902123903 26 270 0.0 9.7 0.00 0.00 0.00 1017.3
20260902123403 26 219 3.2 9.7 0.00 0.00 0.00 1017.3
20260902122902 26 257 3.2 8.0 0.00 0.00 0.00 1017.0
20260902122403 26 211 0.0 9.7 0.00 0.00 0.00 1017.0
20260902121902 26 262 1.6 9.7 0.00 0.00 0.00 1017.3
20260902121403 26 236 3.2 4.8 0.00 0.00 0.00 1017.6
20260902120924 25 230 1.6 8.0 0.00 0.00 0.00 1017.6
20260902120403 25 213 0.0 8.0 0.00 0.00 0.00 1017.6
20260902115903 25 205 0.0 3.2 0.00 0.00 0.00 1017.0
20260902115403 25 175 0.0 3.2 0.00 0.00 0.00 1017.0
20260902114903 25 195 0.0 3.2 0.00 0.00 0.00 1016.6
20260902114403 25 201 1.6 4.8 0.00 0.00 0.00 1016.6
20260902113903 25 215 0.0 9.7 0.00 0.00 0.00 1016.6
20260902112403 25 209 0.0 3.2 0.00 0.00 0.00 1016.6
20260902111903 25 199 0.0 3.2 0.00 0.00 0.00 1016.6
20260902111403 25 192 0.0 3.2 0.00 0.00 0.00 1016.6
20260902110902 25 183 0.0 6.4 0.00 0.00 0.00 1016.6
20260902110403 25 198 0.0 6.4 0.00 0.00 0.00 1017.3
20260902105925 25 199 1.6 4.8 0.00 0.00 0.00 1016.6
20260902105402 25 193 0.0 8.0 0.00 0.00 0.00 1016.3
20260902104903 25 193 0.0 8.0 0.00 0.00 0.00 1016.6
20260902104424 25 201 0.0 8.0 0.00 0.00 0.00 1016.6
20260902103924 25 205 0.0 8.0 0.00 0.00 0.00 1016.6
20260902103403 25 202 0.0 4.8 0.00 0.00 0.00 1017.0
20260902102903 25 225 0.0 4.8 0.00 0.00 0.00 1017.0
20260902102445 25 197 0.0 3.2 0.00 0.00 0.00 1017.3
20260902101903 25 182 0.0 4.8 0.00 0.00 0.00 1017.3
20260902101403 25 197 0.0 4.8 0.00 0.00 0.00 1017.0
20260902100903 25 201 0.0 8.0 0.00 0.00 0.00 1017.0
20260902100403 25 200 0.0 8.0 0.00 0.00 0.00 1017.3
20260902095903 25 211 0.0 6.4 0.00 0.00 0.00 1016.6
20260902095403 25 200 0.0 9.7 0.00 0.00 0.00 1016.6
20260902094904 25 202 0.0 9.7 0.00 0.00 0.00 1016.6
20260902094403 25 202 0.0 8.0 0.00 0.00 0.00 1017.0
20260902093903 25 231 0.0 8.0 0.00 0.00 0.00 1017.0
20260902093403 25 213 0.0 4.8 0.00 0.00 0.00 1016.6
20260902092903 25 215 0.0 9.7 0.00 0.00 0.00 1017.0
20260902092403 25 202 0.0 9.7 0.00 0.00 0.00 1016.6
20260902091903 25 210 0.0 9.7 0.00 0.00 0.00 1017.0
20260902091402 25 212 0.0 9.7 0.00 0.00 0.00 1016.6
20260902090903 25 203 0.0 9.7 0.00 0.00 0.00 1016.6
20260902090402 25 359 0.0 9.7 0.00 0.00 0.00 1017.3
20260902085903 25 212 0.0 9.7 0.00 0.00 0.00 1016.3
20260902085403 25 205 0.0 9.7 0.00 0.00 0.00 1016.6
20260902084903 25 229 0.0 9.7 0.00 0.00 0.00 1016.3
20260902084424 26 202 0.0 9.7 0.00 0.00 0.00 1016.6
20260902083924 25 223 0.0 9.7 0.00 0.00 0.00 1016.3
20260902083424 25 250 1.6 9.7 0.00 0.00 0.00 1017.0
20260902082903 25 207 0.0 3.2 0.00 0.00 0.00 1016.3
20260902082403 25 212 0.0 9.7 0.00 0.00 0.00 1016.6
20260902081903 25 205 0.0 9.7 0.00 0.00 0.00 1016.6
20260902081402 25 201 0.0 6.4 0.00 0.00 0.00 1016.3
20260902080903 25 210 0.0 9.7 0.00 0.00 0.00 1016.3
20260902080402 25 199 0.0 9.7 0.00 0.00 0.00 1016.3
20260902075903 25 277 0.0 9.7 0.00 0.00 0.00 1016.3
20260902075424 25 218 0.0 9.7 0.00 0.00 0.00 1016.0
20260902074903 26 209 0.0 9.7 0.00 0.00 0.00 1016.0
20260902074403 26 202 0.0 9.7 0.00 0.00 0.00 1016.0
20260902073902 26 199 0.0 9.7 0.00 0.00 0.00 1016.0
20260902073403 26 202 0.0 9.7 0.00 0.00 0.00 1016.0
20260902072902 26 202 0.0 9.7 0.00 0.00 0.00 1016.3
20260902072403 26 207 0.0 9.7 0.00 0.00 0.00 1016.0
20260902071903 26 201 0.0 9.7 0.00 0.00 0.00 1016.3
20260902071403 26 202 0.0 9.7 0.00 0.00 0.00 1016.0
20260902070903 26 204 0.0 9.7 0.00 0.00 0.00 1016.0
20260902070403 26 190 0.0 9.7 0.00 0.00 0.00 1016.3
20260902065903 26 199 0.0 9.7 0.00 0.00 0.00 1016.0
20260902065403 26 210 1.6 9.7 0.00 0.00 0.00 1016.3
20260902064903 26 205 0.0 9.7 0.00 0.00 0.00 1016.3
20260902064424 26 188 0.0 9.7 0.00 0.00 0.00 1016.0
20260902063926 26 260 0.0 9.7 0.00 0.00 0.00 1016.6
20260902063403 26 246 0.0 9.7 0.00 0.00 0.00 1016.0
20260902062903 26 217 0.0 9.7 0.00 0.00 0.00 1016.0
20260902062402 26 262 0.0 3.2 0.00 0.00 0.00 1016.3
20260902061903 26 202 0.0 6.4 0.00 0.00 0.00 1016.3
20260902061403 26 222 0.0 9.7 0.00 0.00 0.00 1016.0
20260902060903 27 246 0.0 9.7 0.00 0.00 0.00 1016.3
20260902060424 27 267 0.0 9.7 0.00 0.00 0.00 1016.0
20260902055903 27 211 0.0 9.7 0.00 0.00 0.00 1015.6
20260902055403 27 248 1.6 6.4 0.00 0.00 0.00 1015.6
20260902054903 27 205 0.0 9.7 0.00 0.00 0.00 1016.3
20260902054424 27 113 0.0 9.7 0.00 0.00 0.00 1016.0
20260902053902 27 246 0.0 6.4 0.00 0.00 0.00 1016.3
20260902053403 27 165 0.0 9.7 0.00 0.00 0.00 1016.6
20260902052902 27 179 0.0 9.7 0.00 0.00 0.00 1016.0
20260902052424 27 178 0.0 9.7 0.00 0.00 0.00 1016.0
20260902051902 27 208 0.0 9.7 0.00 0.00 0.00 1016.3
20260902051403 27 227 0.0 9.7 0.00 0.00 0.00 1016.0
20260902050902 27 221 0.0 9.7 0.00 0.00 0.00 1016.3
20260902050403 27 221 0.0 6.4 0.00 0.00 0.00 1016.6
20260902045924 27 199 0.0 8.0 0.00 0.00 0.00 1016.0
20260902045403 27 202 0.0 8.0 0.00 0.00 0.00 1016.3
20260902044903 27 197 0.0 6.4 0.00 0.00 0.00 1016.0
20260902044403 27 207 0.0 9.7 0.00 0.00 0.00 1016.3
20260902043903 27 203 0.0 9.7 0.00 0.00 0.00 1016.3
20260902042403 27 206 0.0 9.7 0.00 0.00 0.00 1016.3
20260902041903 27 207 0.0 9.7 0.00 0.00 0.00 1016.6
20260902041403 27 202 0.0 8.0 0.00 0.00 0.00 1016.6
20260902040902 27 220 0.0 4.8 0.00 0.00 0.00 1017.0
20260902040424 27 199 0.0 6.4 0.00 0.00 0.00 1016.6
20260902035903 27 196 0.0 6.4 0.00 0.00 0.00 1016.6
20260902035431 27 205 0.0 4.8 0.00 0.00 0.00 1016.3
20260902034924 27 211 0.0 4.8 0.00 0.00 0.00 1016.3
20260902034402 27 202 0.0 4.8 0.00 0.00 0.00 1016.0
20260902033924 27 202 0.0 9.7 0.00 0.00 0.00 1016.3
20260902033403 27 202 1.6 9.7 0.00 0.00 0.00 1016.3
20260902032903 28 248 0.0 6.4 0.00 0.00 0.00 1016.3
20260902032403 28 315 0.0 6.4 0.00 0.00 0.00 1016.6
20260902031903 28 225 0.0 9.7 0.00 0.00 0.00 1016.6
20260902031402 28 213 0.0 9.7 0.00 0.00 0.00 1016.3
20260902030903 28 213 0.0 4.8 0.00 0.00 0.00 1016.6
20260902030403 28 206 0.0 8.0 0.00 0.00 0.00 1017.0
20260902025903 28 212 0.0 8.0 0.00 0.00 0.00 1016.6
20260902025403 28 202 0.0 9.7 0.00 0.00 0.00 1016.3
20260902024903 28 205 1.6 9.7 0.00 0.00 0.00 1016.6
20260902024403 28 205 0.0 9.7 0.00 0.00 0.00 1016.3
20260902023903 28 201 0.0 9.7 0.00 0.00 0.00 1017.0
20260902023403 28 187 0.0 9.7 0.00 0.00 0.00 1016.3
20260902022902 28 202 0.0 9.7 0.00 0.00 0.00 1016.3
20260902022403 28 180 0.0 4.8 0.00 0.00 0.00 1016.6
20260902021903 28 202 0.0 4.8 0.00 0.00 0.00 1016.6
20260902021402 28 173 0.0 4.8 0.00 0.00 0.00 1016.3
20260902020903 28 224 0.0 4.8 0.00 0.00 0.00 1016.6
20260902020403 28 216 0.0 4.8 0.00 0.00 0.00 1016.6
20260902015903 28 158 0.0 9.7 0.00 0.00 0.00 1016.3
20260902015425 28 224 0.0 9.7 0.00 0.00 0.00 1016.0
20260902014903 28 221 0.0 9.7 0.00 0.00 0.00 1016.3
20260902014403 28 210 0.0 4.8 0.00 0.00 0.00 1016.0
20260902013924 29 198 0.0 0.0 0.00 0.00 0.00 1016.0
20260902013403 29 225 0.0 1.6 0.00 0.00 0.00 1015.6
20260902012903 29 235 0.0 1.6 0.00 0.00 0.00 1016.0
20260902012403 29 248 0.0 1.6 0.00 0.00 0.00 1016.3
20260902011903 29 248 0.0 0.0 0.00 0.00 0.00 1016.3